Weather History for KCGI - May, 2014

Change the Weather History Date:

Wednesday, May 7, 2014

  Actual Average Record
Temperature  
Mean Temperature 77 °F 64 °F  
Max Temperature 85 °F 75 °F 90 °F (1965)
Min Temperature 68 °F 53 °F 37 °F (1989)
Degree Days  
Heating Degree Days 0 3  
Month to date heating degree days 28 26  
Since 1 July heating degree days 4891 4344  
Cooling Degree Days 12 2  
Month to date cooling degree days 28 14  
Year to date cooling degree days 39 45  
Growing Degree Days 25 (Base 50)    
Moisture  
Dew Point 59 °F    
Average Humidity 58    
Maximum Humidity 73    
Minimum Humidity 43    
Precipitation  
Precipitation 0.00 in 0.20 in 2.54 in (1961)
Month to date precipitation 0.00 1.36  
Year to date precipitation 13.46 17.00  
Sea Level Pressure  
Sea Level Pressure 29.87 in    
Wind  
Wind Speed 15 mph (South)    
Max Wind Speed 28 mph    
Max Gust Speed 35 mph    
Visibility 10 miles    
Events      
T = Trace of Precipitation, MM = Missing Value Source: NWS Daily Summary

Daily Weather History Graph

Daily Weather History Graph

Search for Another Location

Airport or City:

Trip Planner

Search our weather history database for the weather conditions in past years. The results will help you decide how hot, cold, wet, or windy it might be!

Date:

Astronomy

May. 07, 2014 Rise Set
Actual Time 5:57 AM CDT 7:53 PM CDT
Civil Twilight 5:28 AM CDT 8:21 PM CDT
Nautical Twilight 4:54 AM CDT 8:56 PM CDT
Astronomical Twilight 4:17 AM CDT 9:33 PM CDT
Moon 1:07 PM CDT (5/7) 1:46 AM CDT (5/7)
Length of Visible Light 14h 53m
Length of Day
13h 56m
First Quarter, 55% of the Moon is Illuminated
May 7
First Quarter
May 14
Full
May 21
Last Quarter
May 28
New
Jun 5
First Quarter

Hourly Weather History & Observations

Time (CDT) Temp. Heat Index Dew Point Humidity Pressure Visibility Wind Dir Wind Speed Gust Speed Precip Events Conditions
12:53 AM 72.0 °F - 54.0 °F 53% 29.82 in 10.0 mi South 11.5 mph - N/A   Clear
1:53 AM 71.1 °F - 55.0 °F 57% 29.81 in 10.0 mi South 11.5 mph 20.7 mph N/A   Clear
2:53 AM 70.0 °F - 55.9 °F 61% 29.81 in 10.0 mi South 12.7 mph 19.6 mph N/A   Clear
3:53 AM 69.8 °F - 57.2 °F 64% 29.83 in 10.0 mi South 11.5 mph 21.9 mph N/A   Clear
4:53 AM 69.1 °F - 57.0 °F 65% 29.83 in 10.0 mi South 13.8 mph - N/A   Clear
5:53 AM 68.0 °F - 57.0 °F 68% 29.85 in 10.0 mi South 12.7 mph - N/A   Clear
6:53 AM 69.1 °F - 57.9 °F 68% 29.88 in 7.0 mi South 15.0 mph - N/A   Clear
7:53 AM 70.0 °F - 60.1 °F 71% 29.90 in 10.0 mi SSW 10.4 mph 20.7 mph N/A   Clear
8:53 AM 72.0 °F - 60.1 °F 66% 29.90 in 10.0 mi SSW 18.4 mph 26.5 mph N/A   Clear
9:53 AM 73.9 °F - 61.0 °F 64% 29.90 in 10.0 mi SSW 18.4 mph 26.5 mph N/A   Clear
10:53 AM 75.9 °F - 62.1 °F 62% 29.90 in 10.0 mi South 15.0 mph 25.3 mph N/A   Clear
11:53 AM 78.8 °F - 60.8 °F 54% 29.90 in 10.0 mi SSW 16.1 mph 26.5 mph N/A   Clear
12:53 PM 81.0 °F 81.9 °F 62.1 °F 52% 29.88 in 10.0 mi South 18.4 mph 28.8 mph N/A   Clear
1:53 PM 82.9 °F 83.2 °F 60.1 °F 46% 29.87 in 9.0 mi South 21.9 mph 33.4 mph N/A   Partly Cloudy
2:53 PM 81.0 °F 81.3 °F 59.0 °F 47% 29.88 in 10.0 mi South 18.4 mph 28.8 mph N/A   Partly Cloudy
3:53 PM 82.9 °F 82.8 °F 59.0 °F 44% 29.86 in 10.0 mi South 20.7 mph 28.8 mph N/A   Scattered Clouds
4:53 PM 82.9 °F 82.6 °F 57.9 °F 42% 29.86 in 10.0 mi South 20.7 mph 26.5 mph N/A   Partly Cloudy
5:53 PM 82.0 °F 81.7 °F 57.0 °F 42% 29.87 in 10.0 mi SSW 15.0 mph 27.6 mph N/A   Clear
6:53 PM 81.0 °F 81.0 °F 57.0 °F 44% 29.86 in 10.0 mi South 12.7 mph 24.2 mph N/A   Clear
7:53 PM 79.0 °F - 57.9 °F 48% 29.87 in 10.0 mi South 11.5 mph 19.6 mph N/A   Clear
8:53 PM 75.9 °F - 57.9 °F 54% 29.88 in 10.0 mi South 13.8 mph 20.7 mph N/A   Clear
9:53 PM 75.0 °F - 59.0 °F 57% 29.91 in 10.0 mi South 13.8 mph - N/A   Clear
10:53 PM 73.9 °F - 60.1 °F 62% 29.91 in 10.0 mi South 11.5 mph 18.4 mph N/A   Clear
11:53 PM 73.0 °F - 59.0 °F 61% 29.91 in 10.0 mi South 12.7 mph - N/A   Clear